Weather History for KCKC - November, 2012

Change the Weather History Date:

Sunday, November 25, 2012

  Actual Average Record
Temperature  
Mean Temperature 12 °F -  
Max Temperature 19 °F 28 °F 46 °F (2006)
Min Temperature 6 °F 16 °F 0 °F (1996)
Degree Days  
Heating Degree Days 52    
Moisture  
Dew Point 10 °F    
Average Humidity 76    
Maximum Humidity 86    
Minimum Humidity 58    
Precipitation  
Precipitation 0.01 in - - ()
Sea Level Pressure  
Sea Level Pressure 29.76 in    
Wind  
Wind Speed 8 mph (WNW)    
Max Wind Speed 15 mph    
Max Gust Speed 23 mph    
Visibility 8 miles    
Events Snow    
Averages and records for this station are not official NWS values.
T = Trace of Precipitation, MM = Missing Value Source: NWS Daily Summary

Daily Weather History Graph

Daily Weather History Graph

Search for Another Location

Airport or City:

Trip Planner

Search our weather history database for the weather conditions in past years. The results will help you decide how hot, cold, wet, or windy it might be!

Date:

Astronomy

Nov. 25, 2012 Rise Set
Actual Time 7:22 AM CST 4:14 PM CST
Civil Twilight 6:47 AM CST 4:49 PM CST
Nautical Twilight 6:09 AM CST 5:27 PM CST
Astronomical Twilight 5:32 AM CST 6:04 PM CST
Moon 2:38 PM CST (11/25) 4:28 AM CST (11/25)
Length of Visible Light 10h 01m
Length of Day
8h 51m
Waxing Gibbous, 93% of the Moon is Illuminated
Nov 25
Waxing Gibbous
Nov 28
Full
Dec 6
Last Quarter
Dec 13
New
Dec 19
First Quarter

Hourly Weather History & Observations

Time (CST) Temp. Windchill Dew Point Humidity Pressure Visibility Wind Dir Wind Speed Gust Speed Precip Events Conditions
12:14 AM 19.4 °F 11.5 °F 15.8 °F 86% 29.70 in 10.0 mi SW 5.8 mph - N/A Snow Light Snow
12:33 AM 19.4 °F 9.5 °F 15.8 °F 86% 29.69 in 10.0 mi SW 8.1 mph - N/A   Overcast
12:53 AM 19.4 °F 12.8 °F 14.0 °F 80% 29.69 in 10.0 mi WSW 4.6 mph - N/A   Overcast
1:13 AM 19.4 °F 11.5 °F 14.0 °F 80% 29.68 in 10.0 mi West 5.8 mph - 0.01 in   Overcast
1:33 AM 17.6 °F 9.3 °F 14.0 °F 86% 29.67 in 10.0 mi West 5.8 mph - 0.01 in   Overcast
1:53 AM 17.6 °F 7.3 °F 14.0 °F 86% 29.67 in 10.0 mi West 8.1 mph - 0.01 in   Overcast
2:13 AM 17.6 °F 9.3 °F 12.2 °F 79% 29.67 in 10.0 mi West 5.8 mph - N/A   Overcast
2:33 AM 17.6 °F 7.3 °F 12.2 °F 79% 29.67 in 10.0 mi WNW 8.1 mph - N/A   Overcast
2:53 AM 17.6 °F 9.3 °F 12.2 °F 79% 29.67 in 10.0 mi WNW 5.8 mph - N/A   Overcast
3:14 AM 17.6 °F 8.2 °F 12.2 °F 79% 29.66 in 10.0 mi WNW 6.9 mph - N/A   Overcast
3:33 AM 17.6 °F 9.3 °F 12.2 °F 79% 29.66 in 10.0 mi WNW 5.8 mph - N/A   Overcast
3:53 AM 17.6 °F 10.7 °F 12.2 °F 79% 29.66 in 10.0 mi WNW 4.6 mph - N/A   Overcast
4:13 AM 17.6 °F 6.4 °F 12.2 °F 79% 29.66 in 10.0 mi NW 9.2 mph - N/A   Overcast
4:34 AM 17.6 °F 8.2 °F 12.2 °F 79% 29.67 in 10.0 mi WNW 6.9 mph - N/A   Overcast
4:54 AM 17.6 °F 8.2 °F 12.2 °F 79% 29.67 in 10.0 mi WNW 6.9 mph - N/A   Overcast
5:14 AM 17.6 °F 8.2 °F 12.2 °F 79% 29.67 in 10.0 mi WNW 6.9 mph - N/A   Overcast
5:34 AM 17.6 °F 7.3 °F 12.2 °F 79% 29.67 in 10.0 mi WNW 8.1 mph - N/A   Overcast
5:54 AM 17.6 °F 7.3 °F 12.2 °F 79% 29.67 in 5.0 mi WNW 8.1 mph 16.1 mph N/A Snow Light Snow
6:13 AM 17.6 °F 6.4 °F 12.2 °F 79% 29.67 in 10.0 mi WNW 9.2 mph 18.4 mph N/A Snow Light Snow
6:34 AM 17.6 °F 8.2 °F 12.2 °F 79% 29.65 in 10.0 mi NW 6.9 mph - N/A   Mostly Cloudy
6:54 AM 17.6 °F 7.3 °F 12.2 °F 79% 29.67 in 10.0 mi WNW 8.1 mph - N/A   Mostly Cloudy
7:14 AM 17.6 °F 7.3 °F 12.2 °F 79% 29.67 in 10.0 mi WNW 8.1 mph 16.1 mph N/A   Overcast
7:34 AM 17.6 °F 6.4 °F 12.2 °F 79% 29.68 in 10.0 mi West 9.2 mph - N/A   Overcast
7:53 AM 17.6 °F 6.4 °F 12.2 °F 79% 29.68 in 10.0 mi WNW 9.2 mph - N/A   Overcast
8:14 AM 17.6 °F 6.4 °F 12.2 °F 79% 29.69 in 10.0 mi West 9.2 mph - N/A   Overcast
8:33 AM 17.6 °F 7.3 °F 14.0 °F 86% 29.69 in 10.0 mi West 8.1 mph - N/A   Overcast
8:53 AM 17.6 °F 7.3 °F 14.0 °F 86% 29.70 in 10.0 mi WNW 8.1 mph - N/A   Overcast
9:01 AM 17.6 °F 7.3 °F 14.0 °F 86% 29.70 in 10.0 mi WNW 8.1 mph - N/A   Overcast
9:41 AM 19.4 °F 7.2 °F 14.0 °F 80% 29.71 in 4.0 mi WNW 11.5 mph 18.4 mph N/A   Overcast
9:43 AM 19.4 °F 9.5 °F 14.0 °F 80% 29.71 in 4.0 mi West 8.1 mph 18.4 mph N/A Snow Light Snow
9:54 AM 19.4 °F 9.5 °F 12.2 °F 74% 29.71 in 4.0 mi WNW 8.1 mph - N/A Snow Light Snow
10:01 AM 19.4 °F 9.5 °F 12.2 °F 74% 29.72 in 4.0 mi WNW 8.1 mph - N/A Snow Light Snow
10:21 AM 19.4 °F 7.2 °F 12.2 °F 74% 29.72 in 5.0 mi West 11.5 mph 23.0 mph N/A   Overcast
10:41 AM 19.4 °F 6.6 °F 12.2 °F 74% 29.72 in 5.0 mi WNW 12.7 mph 20.7 mph N/A   Overcast
11:01 AM 19.4 °F 6.6 °F 10.4 °F 68% 29.72 in 2.0 mi WNW 12.7 mph 20.7 mph N/A   Overcast
11:21 AM 17.6 °F 4.3 °F 10.4 °F 73% 29.72 in 1.8 mi WNW 12.7 mph 19.6 mph N/A   Overcast
12:01 PM 17.6 °F 4.3 °F 10.4 °F 73% 29.72 in 2.0 mi West 12.7 mph 21.9 mph N/A   Overcast
12:21 PM 17.6 °F 6.4 °F 10.4 °F 73% 29.72 in 2.5 mi WNW 9.2 mph 19.6 mph N/A   Overcast
12:41 PM 17.6 °F 5.0 °F 8.6 °F 68% 29.72 in 10.0 mi WNW 11.5 mph 21.9 mph N/A   Mostly Cloudy
12:59 PM 17.6 °F 3.2 °F 8.6 °F 68% 29.72 in 7.0 mi WNW 15.0 mph 21.9 mph N/A   Mostly Cloudy
1:13 PM 17.6 °F 5.7 °F 10.4 °F 73% 29.73 in 3.0 mi West 10.4 mph 19.6 mph N/A Snow Light Snow
1:15 PM 17.6 °F 3.7 °F 10.4 °F 73% 29.73 in 3.0 mi WNW 13.8 mph 20.7 mph N/A Snow Light Snow
1:41 PM 19.4 °F 6.0 °F 6.8 °F 58% 29.74 in 5.0 mi WNW 13.8 mph 23.0 mph N/A   Mostly Cloudy
2:01 PM 17.6 °F 5.7 °F 8.6 °F 68% 29.74 in 10.0 mi WNW 10.4 mph 16.1 mph N/A   Clear
2:21 PM 17.6 °F 4.3 °F 8.6 °F 68% 29.75 in 10.0 mi WNW 12.7 mph 19.6 mph N/A   Scattered Clouds
2:41 PM 17.6 °F 7.3 °F 8.6 °F 68% 29.76 in 3.0 mi WNW 8.1 mph - N/A   Mostly Cloudy
3:01 PM 17.6 °F 9.3 °F 8.6 °F 68% 29.77 in 4.0 mi West 5.8 mph - N/A   Overcast
3:41 PM 15.8 °F 4.2 °F 8.6 °F 73% 29.79 in 10.0 mi West 9.2 mph 19.6 mph N/A   Overcast
4:01 PM 15.8 °F 3.4 °F 8.6 °F 73% 29.79 in 10.0 mi West 10.4 mph 17.3 mph N/A   Mostly Cloudy
4:21 PM 15.8 °F 6.1 °F 6.8 °F 68% 29.80 in 10.0 mi West 6.9 mph - N/A   Scattered Clouds
5:01 PM 15.8 °F 6.1 °F 8.6 °F 73% 29.81 in 10.0 mi West 6.9 mph - N/A   Overcast
5:21 PM 14.0 °F 8.2 °F 6.8 °F 73% 29.82 in 10.0 mi West 3.5 mph - N/A   Scattered Clouds
5:41 PM 12.2 °F 4.3 °F 6.8 °F 79% 29.83 in 10.0 mi West 4.6 mph - N/A   Mostly Cloudy
6:21 PM 15.8 °F 10.2 °F 8.6 °F 73% 29.85 in 1.2 mi NW 3.5 mph - N/A   Overcast
7:01 PM 15.8 °F 6.1 °F 8.6 °F 73% 29.86 in 3.0 mi NW 6.9 mph - N/A   Overcast
7:21 PM 14.0 °F 1.2 °F 8.6 °F 79% 29.87 in 1.8 mi NW 10.4 mph - N/A   Overcast
7:41 PM 12.2 °F -0.2 °F 6.8 °F 79% 29.88 in 2.0 mi NNW 9.2 mph - N/A   Overcast
8:01 PM 12.2 °F 0.7 °F 6.8 °F 79% 29.89 in 4.0 mi NW 8.1 mph - N/A   Overcast
8:21 PM 12.2 °F 0.7 °F 6.8 °F 79% 29.90 in 7.0 mi NW 8.1 mph - N/A   Overcast
8:41 PM 12.2 °F -0.2 °F 5.0 °F 73% 29.90 in 5.0 mi NW 9.2 mph - N/A   Overcast
9:01 PM 12.2 °F 0.7 °F 5.0 °F 73% 29.91 in 1.5 mi NW 8.1 mph - N/A   Overcast
9:21 PM 10.4 °F 0.8 °F 3.2 °F 73% 29.92 in 10.0 mi WNW 5.8 mph - N/A   Mostly Cloudy
9:41 PM 10.4 °F -1.5 °F 3.2 °F 73% 29.93 in 10.0 mi NW 8.1 mph - N/A   Mostly Cloudy
10:01 PM 10.4 °F -2.4 °F 3.2 °F 73% 29.94 in 4.0 mi NW 9.2 mph - N/A   Overcast
10:21 PM 8.6 °F -5.5 °F 1.4 °F 73% 29.94 in 10.0 mi NW 10.4 mph - N/A   Overcast
10:56 PM 8.6 °F -7.7 °F -0.4 °F 67% 29.94 in 10.0 mi WNW 13.8 mph 21.9 mph N/A   Clear
11:15 PM 6.8 °F -9.3 °F -0.4 °F 72% 29.95 in 7.0 mi NW 12.7 mph 23.0 mph N/A   Clear
11:35 PM 6.8 °F -8.6 °F -0.4 °F 72% 29.96 in 10.0 mi NNW 11.5 mph 23.0 mph N/A   Clear
11:41 PM 6.8 °F -9.3 °F -0.4 °F 72% 29.96 in 10.0 mi NW 12.7 mph 23.0 mph N/A   Clear